{"data":{"norad_id":62399,"epoch":"2026-05-24T22:24:14.546016Z","epoch_age_seconds":80006,"freshness":"FRESH","line1":"1 62399U 24247Y   26144.93350169  .00032302  00000+0  63009-3 0  9991","line2":"2 62399  44.9982  26.5308 0006095 153.2866 206.8340 15.46978236 79800","mean_motion":15.46978236,"eccentricity":0.0006095,"inclination_deg":44.9982,"raan_deg":26.5308,"arg_perigee_deg":153.2866,"mean_anomaly_deg":206.834,"bstar":0.00063009,"rev_number":7980,"period_min":93.084696764926,"perigee_km":421.42475189703,"apogee_km":429.71847269542,"semimajor_km":6803.7086122962,"source":"CELESTRAK","updated_at":"2026-05-25T13:38:02.969253Z"}}